This is the latest recevied weather packets stored in our database for station/object KD4EG. If no packets are shown the sender has not sent any weather packets the latest 10 day(s).
| Time | Temp. | Humidity | Pressure | Rain* | Wind** | Luminosity | Snow |
|---|---|---|---|---|---|---|---|
| 1788642625 | 31.11° C | 55% | 1013 hPa | 0 mm | - | 221 W/m² | - |
| 1788642320 | 31.67° C | 55% | 1013.3 hPa | 0 mm | - | 178 W/m² | - |
| 1788642020 | 31.67° C | 54% | 1013.3 hPa | 0 mm | - | 229 W/m² | - |
| 1788641714 | 31.67° C | 54% | 1013 hPa | 0 mm | - | 229 W/m² | - |
| 1788641413 | 31.67° C | 54% | 1013.2 hPa | 0 mm | - | 236 W/m² | - |
| 1788641109 | 31.67° C | 54% | 1013.2 hPa | 0 mm | - | 234 W/m² | - |
| 1788640809 | 31.67° C | 53% | 1013.2 hPa | 0 mm | - | 261 W/m² | - |
| 1788640504 | 31.67° C | 53% | 1013.2 hPa | 0 mm | - | 231 W/m² | - |
| 1788640199 | 31.67° C | 53% | 1013 hPa | 0 mm | - | 183 W/m² | - |
| 1788639894 | 31.67° C | 52% | 1013.2 hPa | 0 mm | - | 171 W/m² | - |
| 1788639590 | 32.22° C | 50% | 1013.3 hPa | 0 mm | - | 245 W/m² | - |
| 1788639285 | 32.78° C | 51% | 1012.8 hPa | 0 mm | - | 351 W/m² | - |
| 1788638984 | 32.78° C | 50% | 1012.9 hPa | 0 mm | - | 368 W/m² | - |
| 1788638681 | 32.78° C | 50% | 1012.8 hPa | 0 mm | - | 362 W/m² | - |
| 1788638379 | 32.22° C | 49% | 1012.8 hPa | 0 mm | - | 361 W/m² | - |
| 1788638074 | 32.22° C | 51% | 1012.6 hPa | 0 mm | - | 423 W/m² | - |
| 1788637770 | 32.22° C | 50% | 1012.9 hPa | 0 mm | - | 460 W/m² | - |
| 1788637468 | 32.78° C | 49% | 1012.8 hPa | 0 mm | - | 511 W/m² | - |
| 1788637163 | 32.22° C | 49% | 1012.7 hPa | 0 mm | - | 560 W/m² | - |
| 1788636858 | 31.67° C | 49% | 1012.9 hPa | 0 mm | - | 568 W/m² | - |
| 1788636553 | 32.22° C | 49% | 1012.9 hPa | 0 mm | - | 487 W/m² | - |
| 1788636249 | 31.67° C | 49% | 1013.3 hPa | 0 mm | - | 507 W/m² | - |
| 1788635949 | 32.22° C | 48% | 1013.3 hPa | 0 mm | - | 471 W/m² | - |
| 1788635648 | 32.22° C | 48% | 1013.2 hPa | 0 mm | - | 532 W/m² | - |
| 1788635342 | 32.22° C | 50% | 1013.2 hPa | 0 mm | - | 502 W/m² | - |
* Rain latest hour (hover to see other rain measurements)
** Current wind speed in m/s (hover to see current wind gust speed)